Date String (YYYY-MM-DD hh:mm:ss) UTC,Instrument flags,Ambient pressure (hPa),Sample flow (lpm),Bypass flow (lpm),Sample temperature (°C),Ambient temperature (°C),ASC tube jacket temperature (°C),LED temperature (°C),Box temperature (°C),Sample RH (%),Span deviation,Mass concentration (μg/m³),Mass concentration (μg/m³),Mass concentration (μg/m³)
DateTimeUTC,F1_M11,P_M11,Q1_M11,Q2_M11,T1_M11,T2_M11,T3_M11,T4_M11,T5_M11,U1_M11,ZSPAN_M11,X0_M11,X2_M11,X1_M11
2022-11-25 09:00:00,,0835.0,5.00,0.00,22.1,21.0,00.0,31.0,23.9,08.9,0000.0,0000.82,0000.61,0000.57
2022-11-25 09:01:00,,0835.0,5.00,0.00,22.0,20.9,00.0,31.0,23.8,08.8,0000.0,0000.84,0000.62,0000.57
2022-11-25 09:02:00,,0835.0,4.99,0.00,22.0,20.8,00.0,31.0,23.8,08.9,0000.0,0000.90,0000.63,0000.56
2022-11-25 09:03:00,,0835.0,5.00,0.00,22.0,20.7,00.0,31.0,23.8,09.0,0000.0,0000.97,0000.62,0000.55
2022-11-25 09:04:00,,0835.0,5.00,0.00,22.0,20.6,00.0,30.9,23.8,09.0,0000.0,0000.97,0000.62,0000.55
2022-11-25 09:05:00,,0835.0,5.00,0.00,22.0,20.6,00.0,31.0,23.8,09.0,0000.0,0000.98,0000.62,0000.55
2022-11-25 09:06:00,,0835.0,5.00,0.00,22.0,20.5,00.0,30.9,23.7,09.0,0000.0,0000.97,0000.62,0000.55
2022-11-25 09:07:00,,0835.0,5.00,0.00,21.9,20.5,00.0,30.9,23.8,09.1,0000.0,0000.94,0000.61,0000.54
2022-11-25 09:08:00,,0835.0,5.00,0.00,21.9,20.4,00.0,30.9,23.7,09.1,0000.0,0000.90,0000.58,0000.52
2022-11-25 09:09:00,,0835.0,5.00,0.00,21.9,20.4,00.0,30.9,23.7,09.0,0000.0,0000.86,0000.56,0000.51
2022-11-25 09:10:00,,0835.0,5.00,0.00,21.9,20.4,00.0,30.9,23.7,09.0,0000.0,0000.85,0000.55,0000.50
2022-11-25 09:11:00,,0835.0,5.01,0.00,21.9,20.4,00.0,30.9,23.7,09.1,0000.0,0000.84,0000.55,0000.50
2022-11-25 09:12:00,,0835.0,5.01,0.00,21.9,21.3,00.0,30.8,23.8,09.1,0000.0,0000.82,0000.53,0000.49
2022-11-25 09:13:00,,0835.0,4.98,0.00,22.1,22.1,00.0,30.8,24.1,09.0,0000.0,0000.78,0000.52,0000.48
2022-11-25 09:14:00,,0835.0,5.00,0.00,22.1,22.1,00.0,30.9,24.1,08.9,0000.0,0000.71,0000.52,0000.47
2022-11-25 09:15:00,,0835.0,4.99,0.00,22.1,21.7,00.0,30.9,24.1,09.0,0000.0,0000.70,0000.51,0000.46
2022-11-25 09:16:00,,0835.0,5.01,0.00,22.1,21.5,00.0,31.0,24.0,09.0,0000.0,0000.67,0000.49,0000.45
2022-11-25 09:17:00,,0835.0,5.01,0.00,22.1,21.3,00.0,31.0,24.0,09.2,0000.0,0000.65,0000.48,0000.45
2022-11-25 09:18:00,,0835.0,4.99,0.00,22.1,21.1,00.0,31.0,24.0,09.2,0000.0,0000.63,0000.48,0000.45
2022-11-25 09:19:00,,0835.0,4.99,0.00,22.1,20.9,00.0,31.0,23.9,09.0,0000.0,0000.63,0000.48,0000.45
2022-11-25 09:20:00,,0835.0,5.00,0.00,22.1,20.8,00.0,31.0,23.9,09.1,0000.0,0000.66,0000.50,0000.46
2022-11-25 09:21:00,,0835.0,5.00,0.00,22.0,20.8,00.0,31.0,23.8,09.1,0000.0,0000.66,0000.50,0000.46
2022-11-25 09:22:00,,0835.0,5.01,0.00,22.0,20.7,00.0,31.0,23.8,09.1,0000.0,0000.66,0000.50,0000.45
2022-11-25 09:23:00,,0835.0,5.00,0.00,22.0,20.6,00.0,31.0,23.8,09.2,0000.0,0000.64,0000.50,0000.46
2022-11-25 09:24:00,,0835.0,4.99,0.00,22.0,20.6,00.0,31.0,23.8,09.2,0000.0,0000.62,0000.50,0000.46
2022-11-25 09:25:00,,0834.9,5.00,0.00,22.0,20.5,00.0,31.0,23.8,09.2,0000.0,0000.61,0000.49,0000.46
2022-11-25 09:26:00,,0835.0,5.02,0.00,22.0,20.5,00.0,31.0,23.8,09.3,0000.0,0000.61,0000.49,0000.46
2022-11-25 09:27:00,,0835.0,4.99,0.00,21.9,20.5,00.0,30.9,23.7,09.3,0000.0,0000.61,0000.49,0000.46
2022-11-25 09:28:00,,0835.0,4.99,0.00,21.9,20.4,00.0,30.9,23.7,09.3,0000.0,0000.60,0000.49,0000.45
2022-11-25 09:29:00,,0835.0,5.00,0.00,21.9,20.4,00.0,30.9,23.7,09.4,0000.0,0000.60,0000.48,0000.45
2022-11-25 09:30:00,,0835.0,5.01,0.00,21.9,20.7,00.0,30.9,23.7,09.5,0000.0,0000.58,0000.48,0000.45
2022-11-25 09:31:00,,0834.9,5.01,0.00,22.0,21.6,00.0,30.8,23.9,09.5,0000.0,0000.55,0000.46,0000.45
2022-11-25 09:32:00,,0834.9,4.99,0.00,22.1,22.3,00.0,30.8,24.1,09.4,0000.0,0000.55,0000.46,0000.45
2022-11-25 09:33:00,,0834.9,4.99,0.00,22.2,22.0,00.0,30.9,24.1,09.4,0000.0,0000.56,0000.46,0000.45
2022-11-25 09:34:00,,0834.9,5.00,0.00,22.2,21.6,00.0,30.9,24.1,09.4,0000.0,0000.57,0000.47,0000.45
2022-11-25 09:35:00,,0834.9,5.00,0.00,22.1,21.4,00.0,31.0,24.0,09.7,0000.0,0000.56,0000.46,0000.45
2022-11-25 09:36:00,,0834.9,5.00,0.00,22.1,21.2,00.0,31.0,24.0,09.8,0000.0,0000.56,0000.46,0000.45
2022-11-25 09:37:00,,0834.9,5.01,0.00,22.1,21.0,00.0,31.0,24.0,09.9,0000.0,0000.56,0000.46,0000.45
2022-11-25 09:38:00,,0834.9,5.01,0.00,22.1,20.9,00.0,31.0,24.0,09.8,0000.0,0000.57,0000.47,0000.46
2022-11-25 09:39:00,,0834.9,5.00,0.00,22.1,20.8,00.0,31.0,23.9,09.7,0000.0,0000.60,0000.49,0000.46
2022-11-25 09:40:00,,0834.9,5.00,0.00,22.1,20.7,00.0,31.0,23.9,09.5,0000.0,0000.64,0000.51,0000.47
2022-11-25 09:41:00,,0835.0,5.00,0.00,22.0,20.7,00.0,31.0,23.8,09.4,0000.0,0000.65,0000.52,0000.48
2022-11-25 09:42:00,,0834.9,5.00,0.00,22.0,20.6,00.0,31.0,23.8,09.5,0000.0,0000.67,0000.52,0000.48
2022-11-25 09:43:00,,0835.0,5.00,0.00,22.0,20.6,00.0,31.0,23.8,09.5,0000.0,0000.66,0000.52,0000.48
2022-11-25 09:44:00,,0835.0,5.00,0.00,22.0,20.6,00.0,31.0,23.8,09.4,0000.0,0000.65,0000.51,0000.47
2022-11-25 09:45:00,,0835.0,5.01,0.00,22.0,20.5,00.0,31.0,23.8,09.3,0000.0,0000.68,0000.52,0000.46
2022-11-25 09:46:00,,0835.0,5.01,0.00,21.9,20.5,00.0,31.0,23.8,09.4,0000.0,0000.69,0000.52,0000.47
2022-11-25 09:47:00,,0835.0,5.00,0.00,21.9,20.4,00.0,31.0,23.8,09.5,0000.0,0000.71,0000.53,0000.46
2022-11-25 09:48:00,,0835.0,4.99,0.00,21.9,20.4,00.0,30.9,23.8,09.6,0000.0,0000.71,0000.53,0000.46
2022-11-25 09:49:00,,0835.0,5.01,0.00,21.9,20.9,00.0,30.9,23.8,09.9,0000.0,0000.73,0000.53,0000.46
2022-11-25 09:50:00,,0835.0,5.02,0.00,22.0,21.9,00.0,30.8,24.0,09.9,0000.0,0000.71,0000.52,0000.46
2022-11-25 09:51:00,,0835.0,4.99,0.00,22.1,22.2,00.0,30.9,24.2,10.1,0000.0,0000.68,0000.50,0000.46
2022-11-25 09:52:00,,0835.0,4.98,0.00,22.2,21.9,00.0,30.9,24.1,10.2,0000.0,0000.66,0000.49,0000.45
2022-11-25 09:53:00,,0835.0,5.01,0.00,22.2,21.6,00.0,31.0,24.1,10.1,0000.0,0000.64,0000.48,0000.44
2022-11-25 09:54:00,,0835.0,5.00,0.00,22.2,21.4,00.0,31.0,24.1,10.2,0000.0,0000.63,0000.47,0000.43
2022-11-25 09:55:00,,0834.9,5.00,0.00,22.2,21.2,00.0,31.0,24.1,10.2,0000.0,0000.64,0000.48,0000.44
2022-11-25 09:56:00,,0834.9,5.00,0.00,22.2,21.1,00.0,31.0,24.0,10.2,0000.0,0000.61,0000.47,0000.44
2022-11-25 09:57:00,,0835.0,5.00,0.00,22.1,21.0,00.0,31.0,24.0,10.2,0000.0,0000.61,0000.47,0000.44
2022-11-25 09:58:00,,0834.9,5.01,0.00,22.1,20.9,00.0,31.0,24.0,10.3,0000.0,0000.58,0000.46,0000.44
2022-11-25 09:59:00,,0835.0,5.01,0.00,22.1,20.8,00.0,31.1,24.0,10.3,0000.0,0000.60,0000.47,0000.45
